Zurück zum Katalog

SL-16 DEB

AktivLEO
NORAD 22406·DEBRIS·🇷🇺 Russia

Gestartet Dec 25, 1992 von Baikonur Cosmodrome

Loading…

Nächste Überflüge (nächste 24 Stunden)

TLE

AktuellSource: Space-Track

Epoche: Sep 14, 2026, 06:38 UTC

1 22406U 92093CX  26257.27667602  .00000170  00000-0  17313-3 0  9991
2 22406  70.7569   0.0374 0171110 148.8891 242.1651 13.83788263696128

Verfolge SL-16 DEB in Echtzeit mit AllMySat

Download on the App Store